Wind_Speed
12 11 10 10 10 9 9 10 11 11 12 11 11 12 13 15 16 18 20 22 23 24 26 27 27 28 28 28 29 29 28 29 30 30 30 30 30 30 30 31 32 32 32 32
12 12 11 11 11 10 10 10 11 11 12 12 11 11 12 15 16 17 19 20 21 23 24 26 27 28 28 29 29 28 29 29 29 30 30 30 30 30 31 32 34 34 34 34
13 12 12 12 12 11 12 12 12 12 12 12 12 11 11 13 15 16 18 20 21 22 24 25 25 27 28 28 29 28 28 28 29 30 30 30 31 31 32 33 34 36 36 35
13 12 13 13 13 13 13 13 13 13 13 13 13 12 12 14 15 16 18 20 21 23 24 26 26 26 27 28 29 29 29 29 30 31 31 31 32 33 33 33 34 35 36 37
14 13 13 14 14 14 14 14 14 13 13 13 13 14 14 15 15 16 18 19 21 23 25 26 27 27 28 29 29 30 31 31 31 32 32 32 32 33 34 34 35 35 36 37
15 15 14 14 14 15 14 14 14 14 14 15 14 16 16 17 16 17 18 20 21 23 24 26 27 28 29 30 31 31 31 32 32 32 33 34 34 34 35 35 36 36 37 38
15 15 15 15 15 15 15 15 15 15 16 16 15 16 17 17 17 19 20 21 22 24 25 27 27 28 29 31 32 32 32 33 33 34 34 34 34 35 36 36 37 37 38 39
17 17 17 17 17 16 16 16 17 18 18 18 17 17 17 17 18 19 21 22 24 25 26 27 28 28 30 31 33 34 34 33 34 35 35 35 35 36 37 37 38 39 40 40
20 19 19 19 18 18 18 18 18 19 20 20 20 19 18 18 19 20 21 22 24 25 26 27 28 29 30 31 32 34 34 34 35 36 37 38 37 38 38 39 40 40 41 42
22 22 21 21 21 21 20 20 20 21 22 22 21 21 20 20 21 21 22 23 24 26 27 28 29 29 30 31 32 33 34 35 36 36 37 38 39 40 40 42 42 42 43 44
24 24 24 23 22 22 22 22 22 23 24 24 24 23 22 22 23 24 24 25 26 27 28 29 30 31 32 32 33 35 36 36 37 38 39 39 40 41 43 43 43 44 45 46
26 27 26 26 26 25 25 25 25 25 26 26 26 25 24 24 25 26 27 28 29 29 29 30 31 33 34 34 35 36 37 38 38 39 40 41 42 42 43 44 45 46 47 47
29 29 29 29 29 28 28 28 28 29 29 29 28 27 27 27 28 29 29 30 31 32 32 33 33 34 35 36 37 38 39 39 40 41 42 42 43 44 44 45 46 47 47 47
32 32 31 31 31 31 31 30 30 31 31 31 30 29 29 30 31 31 32 32 33 34 35 36 36 36 37 38 39 39 40 41 42 43 43 44 45 45 45 45 46 46 47 47
34 34 34 33 33 34 33 33 33 33 33 34 32 31 31 33 33 33 34 34 35 36 37 37 38 39 39 40 40 41 42 42 42 43 44 45 46 46 46 46 46 47 47 47
37 37 37 36 36 36 36 35 35 35 35 35 35 34 34 35 35 36 36 36 36 37 38 39 39 40 41 42 42 43 43 43 43 44 45 45 45 46 46 47 47 47 48 48
37 38 39 39 38 39 39 36 37 37 36 36 37 36 37 38 38 38 38 38 38 38 39 39 40 41 42 42 42 42 42 43 44 44 44 45 46 46 47 47 48 48 48 48
39 39 40 41 41 41 39 38 38 38 38 39 39 39 39 40 40 40 40 39 40 40 40 40 41 41 41 42 43 43 43 44 44 44 45 46 46 47 46 47 47 47 47 47
40 40 41 42 42 42 40 40 40 40 41 41 41 40 41 41 41 41 40 40 40 40 41 41 41 42 42 43 43 43 43 44 45 45 45 46 46 46 45 45 45 46 46 46
41 41 42 42 43 43 42 41 42 42 42 41 41 41 41 41 42 41 42 41 41 41 42 42 42 42 43 43 43 43 44 45 45 45 45 46 45 45 44 44 44 45 45 44
42 42 42 43 44 44 43 42 43 43 43 42 43 43 42 42 42 42 42 42 43 43 43 43 43 43 43 43 43 44 44 44 44 44 44 44 44 43 43 43 43 43 43 42
42 42 42 42 43 43 42 42 42 43 44 44 44 44 43 43 43 42 42 43 43 43 44 44 44 44 44 44 44 44 44 44 43 43 43 42 42 42 42 42 42 42 42 41
42 42 43 43 43 42 42 42 43 44 44 44 44 44 44 45 45 44 44 44 44 44 44 44 44 44 44 44 44 44 44 44 43 43 42 42 42 42 42 41 41 41 40 40
43 43 43 43 42 41 42 43 44 44 44 44 44 44 44 44 44 44 43 43 44 44 44 44 43 43 43 44 44 43 43 43 42 42 41 41 40 41 41 40 40 39 39 39
43 44 44 43 42 43 43 43 43 43 44 44 44 44 44 44 44 44 43 43 44 44 44 43 43 42 42 42 42 42 42 42 42 41 40 40 39 39 39 39 39 39 38 38
41 42 43 43 42 43 42 42 42 42 42 42 42 42 42 43 43 42 42 42 42 42 42 42 42 42 41 41 41 42 42 41 41 40 39 39 38 38 38 38 38 37 37 37
Wind_Direction
301 298 293 293 291 288 292 290 282 274 271 275 271 259 246 238 232 228 228 227 230 232 234 234 235 236 239 240 242 244 247 249 251 252 253 254 253 254 254 254 255 256 257 258
296 292 289 288 287 286 290 290 285 278 274 277 274 262 246 239 234 232 229 228 230 232 235 237 239 240 241 241 244 247 249 251 253 254 255 256 257 256 257 257 258 259 260 261
292 290 287 284 280 282 286 288 287 282 278 275 272 261 252 245 239 237 233 232 233 236 238 241 242 242 243 245 247 251 253 252 253 255 257 257 259 260 260 260 261 262 262 264
289 288 285 282 278 280 282 283 284 282 278 272 267 257 251 250 245 242 239 238 240 240 241 243 244 245 246 247 249 250 254 256 257 257 257 258 260 261 262 263 264 264 264 265
289 288 287 284 281 280 280 281 280 278 278 275 267 260 253 253 249 247 245 244 245 245 245 246 248 248 248 249 250 252 255 257 258 259 259 260 261 262 263 264 265 265 265 266
291 286 286 284 282 282 281 279 276 275 276 275 271 267 260 256 255 251 247 248 248 248 248 248 249 249 249 251 252 254 256 258 259 259 260 261 262 263 264 265 266 266 267 267
291 287 285 283 282 280 278 278 279 278 276 273 272 270 265 260 259 256 253 252 252 251 251 251 251 252 253 253 254 256 257 259 260 260 260 260 262 264 265 266 267 268 268 269
290 286 285 285 283 280 276 275 277 278 277 274 274 272 268 262 261 259 257 255 253 253 253 254 255 256 257 257 257 258 259 260 260 261 261 262 263 265 266 267 268 269 269 270
289 287 285 284 282 281 278 275 275 277 276 275 274 272 268 265 263 261 260 259 257 257 258 259 259 259 260 260 260 260 261 261 262 263 263 264 264 265 267 268 269 270 270 271
286 285 284 281 280 278 278 276 276 276 277 276 275 273 272 268 267 264 262 261 261 261 262 262 261 262 262 263 263 262 263 263 264 266 265 265 266 266 268 268 269 271 272 273
284 284 283 280 278 278 276 274 275 276 277 277 277 276 274 271 269 267 265 263 263 263 264 263 263 263 263 264 264 265 265 265 265 266 267 267 267 268 268 269 270 271 272 273
282 281 281 280 278 277 275 274 274 276 277 277 277 277 276 273 271 269 267 266 266 266 266 266 266 266 265 266 267 267 267 267 267 268 269 268 269 270 270 271 273 273 274 274
280 280 280 279 277 275 274 274 274 274 275 276 276 277 277 275 273 271 269 267 267 266 266 267 267 267 268 268 268 267 268 269 269 270 270 271 271 271 272 273 274 274 275 275
278 278 278 278 278 277 276 275 274 274 275 275 276 276 274 274 274 273 271 269 269 268 268 268 269 269 269 269 269 269 269 270 270 271 272 273 273 274 274 274 274 275 276 276
277 277 276 276 276 275 275 275 274 273 273 274 275 274 274 273 273 273 273 272 270 270 270 270 270 270 270 270 270 271 270 271 271 272 273 274 274 274 274 275 276 276 276 277
277 277 276 274 275 274 274 275 275 274 275 274 274 274 273 273 273 272 272 272 271 272 272 272 272 271 271 272 272 272 272 271 272 274 274 274 274 274 275 276 276 276 277 277
276 276 276 275 274 274 275 276 275 275 275 275 275 275 274 273 272 271 271 271 272 273 273 273 273 273 273 273 273 272 272 272 273 273 274 275 275 275 275 276 276 277 277 277
275 276 277 276 275 274 277 276 276 276 276 275 275 274 274 272 271 271 271 272 272 273 273 274 275 275 275 274 274 273 273 273 274 274 275 276 276 276 276 277 277 277 278 278
274 275 276 276 276 276 276 277 277 277 276 275 274 274 273 272 271 271 272 273 273 274 274 275 276 276 275 275 275 274 274 274 275 275 276 277 277 277 277 277 277 277 278 279
272 273 274 275 275 276 277 276 277 277 276 275 274 273 272 272 271 272 273 273 273 274 275 276 277 277 276 276 275 275 275 275 276 276 276 277 277 277 277 276 277 278 278 278
272 273 274 275 275 275 277 276 276 275 275 274 273 272 272 272 273 273 274 274 274 274 275 275 276 276 276 275 275 276 276 276 276 276 277 277 277 277 277 277 278 278 278 277
271 272 273 273 274 276 276 275 274 274 273 273 272 272 271 271 272 273 273 273 273 274 275 275 276 276 276 276 276 276 276 277 276 276 277 277 277 277 278 278 279 278 277 277
271 273 273 273 274 275 274 274 274 274 274 273 273 272 272 272 272 271 272 272 272 273 274 275 276 276 276 277 277 277 277 277 276 276 277 276 276 276 277 278 278 278 277 277
271 272 273 273 274 274 274 274 274 274 274 274 273 272 272 272 272 272 272 272 273 273 275 275 277 277 277 277 276 277 277 277 276 276 276 276 276 277 277 277 278 278 277 277
272 272 272 273 274 273 274 274 274 274 274 274 273 273 273 272 272 272 272 272 273 274 275 276 277 277 277 277 277 277 277 277 276 275 275 275 277 278 277 278 278 277 277 278
271 272 272 273 273 273 274 274 274 274 274 274 274 274 273 272 272 271 271 271 272 272 273 274 275 276 276 276 276 277 277 276 276 275 274 275 276 277 277 277 277 277 277 278
Height
5734 5733 5731 5730 5729 5728 5727 5726 5725 5725 5724 5725 5725 5725 5726 5727 5729 5731 5733 5736 5738 5741 5743 5745 5748 5750 5752 5754 5756 5757 5758 5760 5761 5762 5763 5764 5765 5766 5768 5769 5769 5770 5771 5772
5732 5731 5730 5728 5727 5726 5725 5724 5723 5723 5722 5722 5722 5723 5723 5724 5726 5728 5730 5732 5734 5737 5739 5741 5743 5745 5747 5749 5751 5752 5753 5754 5755 5756 5757 5758 5759 5760 5761 5762 5762 5763 5764 5764
5729 5729 5727 5726 5725 5724 5723 5723 5722 5721 5720 5720 5720 5721 5721 5721 5723 5724 5726 5728 5730 5732 5734 5736 5738 5740 5741 5743 5745 5745 5746 5748 5749 5750 5751 5752 5752 5753 5754 5754 5755 5755 5756 5756
5726 5725 5724 5723 5722 5722 5721 5720 5719 5718 5718 5718 5718 5718 5719 5719 5720 5721 5723 5724 5726 5728 5729 5731 5733 5734 5736 5737 5738 5740 5740 5741 5743 5743 5744 5745 5745 5746 5746 5747 5747 5748 5748 5748
5723 5722 5721 5721 5720 5719 5718 5717 5717 5716 5715 5715 5715 5715 5717 5716 5716 5718 5719 5720 5722 5723 5724 5726 5727 5728 5730 5731 5732 5733 5734 5735 5735 5736 5737 5738 5738 5738 5739 5739 5739 5740 5740 5740
5720 5719 5718 5718 5717 5716 5715 5715 5714 5713 5712 5712 5712 5712 5713 5712 5713 5713 5715 5716 5717 5718 5719 5720 5721 5722 5723 5724 5725 5726 5727 5728 5728 5729 5729 5730 5730 5730 5731 5731 5731 5731 5731 5731
5717 5716 5715 5714 5713 5713 5712 5712 5711 5710 5709 5709 5709 5708 5709 5708 5709 5709 5710 5711 5712 5712 5713 5714 5715 5716 5716 5717 5718 5719 5720 5720 5720 5721 5721 5721 5721 5722 5722 5722 5722 5722 5722 5721
5713 5712 5711 5710 5710 5709 5708 5708 5708 5707 5705 5705 5704 5704 5705 5704 5704 5704 5705 5705 5706 5707 5707 5708 5708 5709 5710 5710 5710 5711 5711 5712 5712 5712 5712 5713 5713 5713 5713 5713 5712 5712 5712 5711
5708 5708 5706 5706 5705 5705 5704 5703 5703 5702 5700 5700 5700 5700 5700 5700 5699 5699 5699 5700 5700 5700 5701 5701 5702 5702 5702 5702 5702 5703 5703 5703 5703 5703 5703 5704 5703 5703 5703 5703 5702 5702 5701 5701
5702 5702 5701 5700 5700 5700 5699 5698 5698 5697 5695 5694 5695 5695 5695 5694 5694 5694 5693 5693 5694 5694 5694 5694 5695 5695 5695 5694 5694 5694 5694 5694 5694 5694 5694 5694 5694 5693 5692 5692 5692 5691 5690 5689
5696 5696 5696 5695 5694 5694 5693 5693 5691 5691 5690 5689 5688 5691 5689 5688 5688 5687 5687 5687 5687 5687 5687 5687 5687 5686 5686 5686 5685 5685 5685 5685 5684 5684 5683 5683 5683 5682 5681 5680 5680 5679 5678 5677
5689 5689 5688 5688 5688 5687 5686 5686 5685 5685 5684 5682 5681 5685 5682 5681 5680 5679 5679 5679 5679 5679 5678 5678 5678 5678 5677 5677 5676 5676 5675 5674 5674 5673 5673 5672 5671 5671 5670 5669 5668 5667 5666 5664
5682 5681 5681 5681 5682 5680 5679 5678 5677 5676 5676 5675 5674 5678 5674 5673 5672 5671 5671 5670 5670 5670 5669 5669 5668 5668 5667 5667 5666 5665 5665 5664 5663 5662 5662 5661 5660 5659 5658 5657 5655 5654 5653 5651
5673 5673 5673 5673 5671 5670 5670 5670 5668 5667 5666 5666 5667 5668 5667 5664 5663 5662 5661 5660 5660 5660 5659 5659 5658 5658 5657 5656 5655 5654 5653 5653 5652 5651 5650 5649 5648 5647 5645 5644 5642 5641 5640 5638
5663 5664 5663 5663 5662 5661 5661 5660 5659 5658 5658 5657 5658 5658 5657 5654 5653 5652 5651 5651 5650 5649 5649 5648 5648 5647 5646 5645 5644 5642 5641 5641 5640 5639 5638 5637 5635 5634 5632 5631 5629 5627 5626 5624
5653 5653 5653 5653 5652 5650 5650 5651 5649 5648 5648 5647 5646 5647 5647 5644 5643 5642 5641 5640 5640 5639 5638 5637 5636 5635 5634 5633 5632 5631 5629 5628 5627 5626 5625 5624 5622 5621 5620 5618 5616 5614 5612 5610
5643 5642 5641 5641 5641 5639 5640 5642 5640 5639 5638 5637 5636 5637 5635 5633 5632 5631 5630 5630 5629 5628 5627 5626 5624 5623 5622 5620 5619 5618 5617 5616 5615 5613 5612 5611 5609 5608 5606 5604 5602 5600 5598 5596
5632 5631 5628 5628 5628 5627 5633 5630 5628 5627 5627 5625 5624 5623 5622 5621 5620 5620 5619 5618 5617 5616 5615 5614 5612 5611 5609 5608 5606 5605 5604 5603 5602 5600 5599 5597 5596 5594 5592 5590 5588 5586 5584 5582
5621 5619 5617 5616 5614 5615 5619 5618 5616 5614 5614 5614 5612 5611 5609 5608 5608 5608 5606 5605 5604 5604 5603 5601 5600 5598 5596 5595 5593 5592 5591 5590 5589 5587 5585 5584 5582 5580 5578 5576 5574 5572 5570 5568
5609 5607 5606 5604 5602 5602 5607 5605 5602 5601 5601 5601 5599 5597 5596 5596 5596 5596 5594 5593 5592 5591 5590 5588 5587 5585 5583 5582 5580 5579 5578 5576 5575 5573 5571 5569 5568 5566 5564 5562 5560 5558 5556 5554
5596 5594 5593 5591 5588 5589 5593 5590 5588 5589 5589 5587 5585 5584 5583 5582 5582 5582 5581 5580 5579 5578 5576 5575 5573 5572 5570 5568 5567 5566 5564 5562 5561 5559 5557 5556 5554 5552 5550 5549 5546 5544 5542 5540
5583 5582 5581 5579 5577 5580 5578 5576 5575 5574 5573 5572 5571 5570 5569 5569 5568 5568 5567 5566 5565 5564 5563 5561 5560 5559 5557 5555 5553 5552 5550 5548 5547 5545 5544 5542 5540 5538 5537 5535 5533 5531 5529 5527
5570 5570 5567 5566 5567 5566 5564 5562 5561 5560 5559 5558 5557 5557 5556 5555 5555 5554 5553 5553 5551 5550 5549 5547 5546 5545 5543 5541 5539 5538 5537 5534 5533 5532 5531 5529 5527 5525 5524 5522 5520 5518 5516 5515
5557 5555 5553 5553 5554 5552 5550 5548 5547 5546 5545 5544 5543 5543 5542 5541 5541 5540 5539 5539 5538 5537 5535 5534 5533 5531 5530 5528 5526 5524 5523 5521 5520 5519 5517 5516 5514 5513 5511 5509 5508 5506 5504 5503
5544 5541 5539 5539 5540 5538 5537 5535 5534 5532 5531 5530 5530 5529 5528 5527 5526 5526 5525 5525 5524 5523 5522 5521 5519 5518 5516 5514 5513 5511 5509 5507 5507 5506 5504 5503 5502 5500 5499 5497 5496 5494 5493 5491
5531 5528 5526 5526 5526 5523 5524 5522 5521 5519 5518 5517 5516 5515 5514 5513 5512 5512 5511 5511 5510 5509 5508 5507 5505 5504 5503 5501 5500 5498 5496 5494 5493 5493 5492 5490 5489 5488 5486 5485 5484 5482 5481 5480